www.pogodaiklimat.ru

Погода и климат >> Архив погоды >> Россия >> Ненецкий АО >> Мыс Белый Нос


ПОГОДА на Мысе Белый Нос

  • Прогноз погоды на Мысе Белый Нос
  • Монитор погоды на Мысе Белый Нос

АРХИВ ПОГОДЫ на Мысе Белый Нос

Время (UTC), дата Ветер
(напр.,м/с)
 
Видим.   Явления Облачность Т
(С)
Тd
(С)
f
(%)
Тe
(С)
Тes
(С)
Комфортность P
(гПа)
Po
(гПа)
Тmin
(С)
Tmax
(С)
R
(мм)
R24
(мм)
S
(см)
03 11.06 В 4 20 км 10/0
[Ac und]
+1.3 -1.4 82 -4 -3 1009.5 1008.7 +0.1 0
06 11.06 В 4 20 км 9/0
[Ac trans]
+2.8 -1.4 74 -2 +1 1009.3 1008.5
09 11.06 СВ 5 н/о н/о +3.4 -0.3 77 -2 -2 1009.3 1008.5
12 11.06 С 5 20 км 9/6 300 м
[Sc Ac trans]
+2.7 -1.0 77 -3 -2 1009.3 1008.5
15 11.06 С 4 20 км 4/4 300 м
[Sc]
+1.8 -1.3 80 -3 -2 1008.8 1008.0 +3.6
18 11.06 З 3 20 км 10/10 300 м
[Cu Sc]
+1.2 -3.1 73 -3 -3 1007.5 1006.8
21 11.06 З 5 н/о н/о +1.5 -0.6 86 -4 -4 1005.7 1004.9
00 12.06 СЗ 4 20 км 10/10 300 м
[Cu Sc]
+0.8 -0.4 92 -5 -5 1004.6 1003.9
03 12.06 СЗ 3 20 км 10/3 300 м
[Sc diur, vesp Ac und]
+1.0 -0.3 91 -4 -3 1003.5 1002.8 +0.6 0
06 12.06 З 6 20 км 10/3 300 м
[Cu Sc Ac und]
+1.2 -0.1 91 -5 -4 1002.9 1002.1
09 12.06 СЗ 5 н/о н/о +1.2 +0.1 92 -5 -5 1002.7 1001.9
12 12.06 СЗ 5 2000 м слаб. ливневой снег 9/8 300 м
[Cb cap Ac trans]
+1.6 +0.2 90 -4 -4 1002.9 1002.1
15 12.06 С 7
{11}
20 км {ливн. осадки} 9/6 300 м
[Cu Sc Ac trans]
+0.8 -1.2 86 -6 -6 1003.5 1002.8 +2.0 0.0
18 12.06 СЗ 4 20 км {ливн. осадки} 10/10 300 м
[Cu Sc]
0.0 -0.8 94 -6 -6 1003.3 1002.6
21 12.06 СЗ 7 н/о н/о -0.2 -0.2 100 -8 -8 1001.7 1000.9
00 13.06 СЗ 5 4000 м слаб. ливневой снег 10/8 300 м
[Cb cap Ac und]
-0.3 -0.3 100 -7 -7 1000.8 1000.1
03 13.06 С 3 20 км {ливн. осадки} 10/6 300 м
[Cb cap Ac und]
-0.5 -0.5 100 -6 -5 1001.8 1001.0 -0.7 1 1
06 13.06 С 7 20 км {ливн. осадки} 10/10 300 м
[Sc diur, vesp]
+0.3 -0.6 94 -7 -7 1003.0 1002.3
09 13.06 С 8
{10}
н/о н/о +0.4 -2.3 82 -7 -7 1004.4 1003.6
12 13.06 С 7-12
{12}
20 км 10/10 300 м
[Cu Sc]
-0.4 -0.8 97 -8 -8 1005.1 1004.2
15 13.06 С 5
{12}
4000 м слаб. ливневой снег 10/10 300 м
[Cb cap]
-0.6 -1.3 95 -7 -7 1005.1 1004.3 +0.8 0.0
18 13.06 С 6
{10}
20 км {ливн. осадки} 10/10 300 м
[Cu Sc]
-0.5 -1.7 92 -7 -7 1005.1 1004.3
21 13.06 СЗ 5 н/о н/о -0.7 -1.1 97 -7 -7 1004.9 1004.2
00 14.06 С 7 20 км 8/6 300 м
[Cu Sc Ci fib]
-0.3 -1.4 92 -8 -8 1004.8 1004.1
03 14.06 СЗ 6 20 км 9/6 300 м
[Sc diur, vesp Ci fib]
+0.2 -0.8 93 -7 -6 1004.6 1003.9 -0.9 0.0 0
06 14.06 З 5 20 км 8/3 300 м
[Sc diur, vesp Ci]
+0.8 -0.4 92 -5 -2 1004.3 1003.5
09 14.06 З 5 н/о н/о +1.3 -0.1 90 -5 -5 1003.7 1002.9
12 14.06 З 6 20 км 9/8 300 м
[Sc diur, vesp Ac trans]
+1.1 -0.4 90 -5 -5 1003.3 1002.6
15 14.06 З 5
{11}
4000 м слаб. ливневой дождь 10/10 300 м
[Cb cap]
+0.6 +0.6 100 -6 -6 1001.9 1001.2 +1.3 0.0
18 14.06 З 5 4000 м дымка {ливн. осадки} 10/10 300 м
[St]
+0.4 +0.4 100 -6 -6 999.6 998.8
21 14.06 З 4 н/о н/о +0.1 +0.1 100 -6 -6 997.5 996.8
00 15.06 З 3 4000 м дымка {ливн. осадки} 10/10 300 м
[St]
-0.1 -0.1 100 -5 -5 996.4 995.7
03 15.06 З 3 4000 м дымка {ливн. осадки} 10/10 300 м
[St]
+0.2 +0.2 100 -5 -5 996.3 995.5 -0.2 1 0
06 15.06 СЗ 3 20 км {ливн. осадки} 10/10 300 м
[Sc diur, vesp]
+0.8 +0.7 99 -4 -4 997.1 996.3
09 15.06 СЗ 3 н/о н/о +2.5 +0.7 88 -2 -2 998.2 997.4
12 15.06 СЗ 4 20 км 10/10 300 м
[Sc diur, vesp]
+1.0 -0.2 92 -4 -4 999.0 998.2
15 15.06 З 3 20 км 10/10 300 м
[Sc diur, vesp]
+0.6 +0.2 97 -4 -4 998.7 998.0 +3.1
18 15.06 ЮЗ 3 20 км 9/4 300 м
[Sc diur, vesp Ac trans Cc]
+0.2 +0.2 100 -5 -5 998.0 997.3
21 15.06 ЮЗ 6 н/о н/о +1.1 +0.6 96 -5 -5 996.2 995.5
00 16.06 Ю 6 2000 м морось 10/10 300 м
[St]
+0.6 +0.6 100 -6 -6 994.3 993.6
03 16.06 З 4 4000 м дымка 10/6 300 м
[St Ac und]
+1.0 +1.0 100 -5 -4 993.6 992.9 +0.1 0.5 0
06 16.06 ЮЗ 4 20 км {морось} 10/6 300 м
[Sc diur, vesp Ac und]
+1.5 +0.2 91 -4 -3 993.1 992.3
09 16.06 Ю 6 н/о н/о +2.4 +2.4 100 -4 -4 992.1 991.3
12 16.06 ЮЗ 5 4000 м слаб. ливневой дождь 10/10 300 м
[Cb cap]
+1.8 +1.8 100 -4 -4 991.8 991.1
15 16.06 З 4 4000 м слаб. ливневой дождь 10/10 300 м
[Cb cap]
+1.0 +0.9 99 -4 -4 992.1 991.3 +2.5 0.6
18 16.06 Ю 3 4000 м слаб. ливневой дождь со снегом 10/10 300 м
[Cb cap]
+0.5 +0.5 100 -4 -4 991.4 990.6
21 16.06 ЮЗ 3 н/о н/о +0.4 +0.4 100 -4 -4 990.3 989.6
00 17.06 Ю 3 4000 м слаб. ливневой снег 10/10 300 м
[Cb cap]
0.0 0.0 100 -5 -5 989.6 988.8
03 17.06 З 3 20 км {ливн. осадки} 9/9 300 м
[Sc]
+0.7 +0.7 100 -4 -4 989.2 988.5 0.0 2 0
06 17.06 З 4 20 км {ливн. осадки} 9/9 300 м
[Sc]
+1.0 +0.9 99 -4 -4 989.8 989.1
09 17.06 ЮЗ 4 н/о н/о +1.5 +1.2 98 -4 -4 991.1 990.3
12 17.06 З 7-10
{10}
20 км 10/10 300 м
[Cu Sc]
+1.7 +0.9 94 -5 -5 992.3 991.5
15 17.06 З 6
{10}
20 км 9/8 300 м
[Cu Sc Ac trans]
+1.6 +0.4 92 -5 -5 993.1 992.4 +1.9
18 17.06 ЮЗ 6
{10}
20 км 9/8 300 м
[Cu Sc Ac trans]
+0.9 +0.2 95 -6 -6 992.7 992.0
21 17.06 З 5 н/о н/о +0.1 +0.1 100 -6 -6 992.0 991.3
00 18.06 З 3 20 км 10/10 300 м
[Sc]
+0.5 +0.2 98 -4 -4 992.4 991.7

 

Местоположение метеостанции Мыс Белый Нос (Ненецкий АО, Россия): широта 69.60 долгота 60.21 высота над уровнем моря 6 м.

В архиве по умолчанию представлена погода на Мысе Белый Нос за последнюю неделю. Архивные данные за месяц целиком и за предыдущие месяцы, начиная с января 2011 года, Вы можете получить, выбрав интересующий диапазон дат из раскрывающегося списка и нажав кнопку "Ввод!".


*Определитесь, кто Вы:
робот инопланетянин человек

Внимание! Время в таблицах - всемирное. Для получения местного времени необходимо прибавить поправку, которая равна 3 ч.

Смотрите также архив погоды в соседних городах и на ближайших метеорологических станциях:

Погода в Амдерме (Ненецкий АО, Россия) (60 км)
Погода в Имени Федорова (Ненецкий АО, Россия) (104 км)
Погода в Варандее (Ненецкий АО, Россия) (122 км)
Погода в Усть-Каре (Ненецкий АО, Россия) (189 км)
Погода на Мысе Константиновском (Ненецкий АО, Россия) (220 км)
Погода в Марресале (Ямало-Ненецкий АО, Россия) (255 км)
Погода в Хорей-Вере (Ненецкий АО, Россия) (257 км)
Погода в Ходоварихе (Ненецкий АО, Россия) (265 км)
Погода в Воркуте (Коми, Россия) (281 км)
Погода в Харуте (Ненецкий АО, Россия) (307 км)

Пояснения к столбцам:

Ветер - указаны скорость ветра в м/с - средняя за 10 мин, порывы в срок и между сроками (в фигурных скобках) и направление, откуда дует ветер: С - северный, СВ - северо-восточный, В - восточный, ЮВ - юго-восточный, Ю - южный, ЮЗ - юго-западный, З - западный, СЗ - северо-западный.
Видимость - горизонтальная дальность видимости в метрах или километрах. При видимости от 1 до 10 км при отсутствии осадков обычно наблюдается дымка, при ухудшении видимости до 1 км и менее - туман. В сухую погоду видимость может ухудшаться дымом, пылью или мглою.
Явления - указаны атмосферные явления, наблюдавшиеся в срок или в последний час перед сроком; фигурными скобками обозначены явления, наблюдавшиеся между сроками (за 1-3 часа до срока); квадратными скобками обозначены град или гололедные отложения с указанием их диаметра в мм.
Облачность - указаны через наклонную черту общая и нижняя облачность в баллах и высота нижней границы облаков в метрах; квадратными скобками обозначены формы облаков: Ci - перистые, Cs - перисто-слоистые, Cc - перисто-кучевые, Ac - высококучевые, As - высокослоистые, Sc - слоисто-кучевые, Ns - слоисто-дождевые, Cu - кучевые, Cb - кучево-дождевые. Подробнее классификацию облаков см. в Атласе облаков (PDF).
T - Температура воздуха - температура, измеренная на высоте 2 м над землей.
Td - Температура точки росы - температура, при понижении до которой содержащийся в воздухе водяной пар достигнет насыщения.
f - Относительная влажность воздуха - влажноcть воздуха, измеренная на высоте 2 м над землей.
Te - Эффективная температура - температура, которую ощущает одетый по сезону человек в тени. Характеристика душности погоды. При расчете учитывается влияние влажности воздуха и скорости ветра на теплоощущения человека.
Tes - Эффективная температура на солнце - температура, которую ощущает человек, с поправкой на солнечный нагрев. Характеристика знойности погоды. Зависит от высоты солнца над горизонтом, облачности и скорости ветра. Ночью, в пасмурную погоду, а также при ветре 12 м/с и более поправка равна нулю.
P - Атмосферное давление - приведенное к уровню моря атмосферное давление.
Po - Атмосферное давление - измеренное на уровне метеостанции атмосферное давление.
Tmin - Минимальная температура - минимум температуры воздуха на высоте 2 м над землей.
Tmax - Максимальная температура - максимум температуры воздуха на высоте 2 м над землей.
R - Количество осадков - Количество выпавших осадков за период времени, мм. При наведении курсора мыши на число - период времени, за который выпало указанное количество осадков.
R24 - Количество осадков - Количество выпавших осадков за 24 часа, мм.
S - Снежный покров - Высота снежного покрова, см. При наведении курсора мыши на число - состояние снежного покрова и степень покрытия местности в баллах.